Location: Hungerford
(51.4167°N, 1.5167°W)
Time: 12:41:03
(UTC+00:00)

OPS 6432 - Pass Details

Date: 18 September 2020
Orbit: 369 x 1718 km, 63.3° (Epoch: 14 September)

Event Time Altitude Azimuth Distance (km) Brightness Sun altitude
Rises 18:55:29 0° 314° (NW) 2,246 9.1 -7.4°
Reaches altitude 10° 18:57:22 10° 312° (NW) 1,428 8.0 -7.7°
Maximum altitude 19:00:24 75° 227° (SW) 453 4.5 -8.2°
Drops below altitude 10° 19:04:06 10° 142° (SE) 1,738 6.9 -8.8°
Enters shadow 19:05:00 - 142° (SE) 2,121 7.3 -8.9°
